Terug naar catalogus

ATLAS 5 CENTAUR DEB

LostHEO
NORAD 52966·DEBRIS·🇺🇸 United States

Gelanceerd Oct 17, 2018 vanaf Cape Canaveral Space Force Station

Loading…

Volgende Passages (komende 24 uur)

TLE

VerouderdSource: Space-Track

Epoch: Jul 9, 2022, 21:42 UTC

1 52966U 18079GQ  22190.90471368 -.00000026  00000-0  00000+0 0  9993
2 52966  11.3801 183.0042 4449891  21.5282 352.4908  1.56003646  6177

Volg ATLAS 5 CENTAUR DEB in realtime met AllMySat

Download on the App Store